Regional Weather Roundup
Issued by NWS

Home | Current Version | Previous Version | Text Only | Print | Product List | Glossary Off
Versions: 1 2 3 4 5 6 7 8 9 10 11 12 13 14 15 16 17 18 19 20 21 22 23 24 25 26 27 28 29 30 31 32 33 34 35 36 37 38 39 40 41 42 43 44 45 46 47 48 49 50

000
ASUS43 KMKX 221621
RWRWI

WISCONSIN REGIONAL WEATHER ROUNDUP
NATIONAL WEATHER SERVICE MILWAUKEE/SULLIVAN WI
1100 AM CDT TUE JUL 22 2014

NOTE: "FAIR" INDICATES FEW OR NO CLOUDS BELOW 12,000 FEET WITH NO
SIGNIFICANT WEATHER AND/OR OBSTRUCTIONS TO VISIBILITY.

WIZ001-002-006>008-014>016-023>028-221700-
NORTHWEST WISCONSIN

CITY           SKY/WX    TMP DP  RH WIND       PRES   REMARKS
SUPERIOR ARPT  CLOUDY    73  64  73 NW17G26   29.91R
ASHLAND        PTSUNNY   74  65  73 W14G24    29.89R
HAYWARD        CLOUDY    74  63  68 NW8G21    29.93R
SIREN          CLOUDY    73  62  69 N14       29.95R
RICE LAKE      CLOUDY    77  64  63 NW9G18    29.94S
LADYSMITH      CLOUDY    76  65  67 NW16      29.93S
EAU CLAIRE     PTSUNNY   80  65  59 NW10      29.93R HX  82
MENOMONIE      CLOUDY    78  64  62 NW9       29.96R HX  80
NEW RICHMOND   PTSUNNY   77  65  66 NW9G17    29.97R
OSCEOLA        CLOUDY    76  65  69 NW10G23   29.98R
$$

WIZ003>005-009-010-017-018-221700-
NORTH CENTRAL WISCONSIN

CITY           SKY/WX    TMP DP  RH WIND       PRES   REMARKS
WOODRUFF       PTSUNNY   78  66  66 W13G22    29.89R HX  80
RHINELANDER    PTSUNNY   78  65  63 W15G29    29.89R HX  80
EAGLE RIVER    PTSUNNY   77  62  60 W21G28    29.86R
LAND O LAKES   CLOUDY    76  64  66 W18G24    29.87R
PHILLIPS       PTSUNNY   75  64  69 NW10G21   29.91R
TOMAHAWK       MOSUNNY   78  65  64 W15G23    29.90R HX  80
MEDFORD        MOSUNNY   79  67  67 NW17      29.89R HX  81
MERRILL        PTSUNNY   83  73  70 NW17      29.86S HX  89
$$

WIZ029-030-035-036-043>047-221700-
CENTRAL WISCONSIN

CITY           SKY/WX    TMP DP  RH WIND       PRES   REMARKS
WAUSAU         MOSUNNY   86  72  62 W15G24    29.85F HX  92
MOSINEE        CLOUDY   N/A  73   0 SW16      29.89S HX  81
MARSHFIELD     PTSUNNY   84  74  71 W10       29.88F HX  91
STEVENS POINT  PTSUNNY   81  71  71 W12       29.89S HX  85
WAUPACA        MOSUNNY   86  72  61 SW12G17   29.88S HX  92
WAUTOMA        MOSUNNY   86  73  64 SW15      29.90F HX  93
WISC RAPIDS    PTSUNNY   85  73  67 W10       29.89F HX  91
CAMP DOUGLAS   PTSUNNY   84  77  79 SW9G17    29.90F HX  94
$$

WIZ011>013-019>022-031-037>040-048>050-221700-
NORTHEAST WISCONSIN

CITY           SKY/WX    TMP DP  RH WIND       PRES   REMARKS
ANTIGO         CLOUDY    80  73  78 W16       29.88S HX  84
STURGEON BAY   CLOUDY    82  70  65 SW17G23   29.85F HX  86
GREEN BAY      CLOUDY    82  71  69 SW16G24   29.87F HX  86
MANITOWOC      PTSUNNY   84  71  65 SW18      29.89F HX  89
APPLETON       CLOUDY    79  70  73 SW14G21   29.91R HX  81
CLINTONVILLE   CLOUDY    82  70  65 SW13G20   29.86S HX  86
OSHKOSH        CLOUDY    81  71  71 SW9G22    29.91R HX  85
$$

WIZ032>034-041-042-053>061-221700-
SOUTHWEST WISCONSIN

CITY           SKY/WX    TMP DP  RH WIND       PRES   REMARKS
LA CROSSE      SUNNY     88  74  63 SW5       29.88S HX  96
SPARTA         MOSUNNY   83  71  66 W8G16     29.90S HX  88
VIROQUA        PTSUNNY   82  74  76 W5        29.94F HX  88
BOSCOBEL       MOSUNNY   87  74  64 SW9G17    29.93F HX  95
PRAIRIE DU CHI CLOUDY    83  72  69 SW6       29.92F HX  88
PLATTEVILLE    FAIR      82  74  75 SW12      29.98S HX  88
$$

WIZ056-057-062-063-064-067-068-221700-
SOUTH CENTRAL WISCONSIN

CITY           SKY/WX    TMP DP  RH WIND       PRES   REMARKS
BARABOO/DELLS  PTSUNNY   83  69  62 W10G16    29.94S HX  86
LONE ROCK      CLOUDY    85  73  67 SW12      29.94S HX  91
WATERTOWN      PTSUNNY   82  71  70 SW15      29.95S HX  86
MADISON        PTSUNNY   83  71  67 SW9       29.95R HX  87
MIDDLETON      CLOUDY    83  70  65 W10       29.96S HX  87
MONROE         CLOUDY    81  72  74 SW17      29.98R HX  84
JANESVILLE     MOSUNNY   84  70  61 S13G20      N/A  HX  88
$$

WIZ051-052-058>065-066-070>072-221700-
SOUTHEAST WISCONSIN

CITY           SKY/WX    TMP DP  RH WIND       PRES   REMARKS
MILWAUKEE      MOSUNNY   83  68  60 SW17      29.96S HX  86
WAUKESHA         N/A     79  66  65 S17       29.98S HX  81
MILWAUKEE/TIMM MOSUNNY   82  66  57 SW14G23   29.96S HX  85
RACINE         MOSUNNY   84  69  60 SW14G23   29.98S HX  88
BURLINGTON     MOSUNNY   80  70  71 SW12      29.97S HX  83
KENOSHA        MOSUNNY   83  69  62 SW17G25   29.97F HX  86
FOND DU LAC    PTSUNNY   82  69  64 SW16G25   29.92F HX  85
SHEBOYGAN      CLOUDY    82  70  66 SW17G24   29.93R HX  86
WEST BEND      PTSUNNY   79  66  65 SW14G20   29.95S HX  81
JUNEAU         PTSUNNY   81  55  41 SW17      29.96S HX  81
$$

LSZ147-162-221700-
LAKE SUPERIOR

STATION/POSITION TIME  TEMP    WIND        PRES    WAVE
                       AIR SEA DIR/SP/G            HT/PER
                 (UTC) (F)     (DEG/KT/KT) (MB)    (FT/S)
W MID LAKE BUOY  1550   50 40  250/ 17/ 19 1008.1R   2/ 4
PORT WING        1500   67     240/ 13/ 17 1011.9R
SAXON HARBOR     1540          290/ 13/ 17 1011.2R
$$

LMZ867-665-643>646-221700-
LAKE MICHIGAN

STATION/POSITION TIME  TEMP    WIND        PRES    WAVE
                       AIR SEA DIR/SP/G            HT/PER
                 (UTC) (F)     (DEG/KT/KT) (MB)    (FT/S)
N MID LAKE BUOY  1550   62 57  200/ 23/ 27 1009.1F   5/ 5
NORTHPORT PIER   1600   70     150/ 12/ 22 1009.5F
KEWAUNEE LAKESHO 1600   57     170/ 16/ 18 1012.4F
SHEBOYGAN LAKESH 1600   69     170/ 17/ 18 1013.1S
PORT WASHINGTON  1540   62     180/ 10/ 12 1014.2F
ATWATER BUOY     1600   68     190/  8     1015.2R
MILWAUKEE LAKESH 1600   80     220/ 16/ 22   N/A
S MID LAKE BUOY  1550   70 68  180/ 16/ 17 1015.4F   2/ 4
KENOSHA   LAKESH 1600   83     210/ 11/ 19   N/A
$$

TC  - TEMPERATURE IN CELSIUS
VSB - VISIBILITY IN STATUTE MILES
WCI - WIND CHILL INDEX
HX  - HEAT INDEX



USA.gov is the U.S. government's official web portal to all federal, state and local government web resources and services.